Time,TemperatureF,DewpointF,PressureIn,WindDirection,WindDirectionDegrees,WindSpeedMPH,WindSpeedGustMPH,Humidity,HourlyPrecipIn,Conditions,Clouds,dailyrainin,SoftwareType,DateUTC
2013-02-27 00:00:00,45.6,44.5,29.62,South,174,0.0,2.0,96,0.00,,,0.00,Wunderground v.1.15,2013-02-27 05:00:00,
2013-02-27 00:01:00,45.6,44.5,29.62,South,174,0.0,2.0,96,0.00,,,0.00,Wunderground v.1.15,2013-02-27 05:01:00,
2013-02-27 00:02:00,45.6,44.5,29.62,South,174,0.0,2.0,96,0.00,,,0.00,Wunderground v.1.15,2013-02-27 05:02:00,
2013-02-27 00:05:00,45.6,44.5,29.62,South,174,0.0,2.0,96,0.00,,,0.00,Wunderground v.1.15,2013-02-27 05:05:00,
2013-02-27 00:11:00,45.5,44.4,29.63,South,176,0.0,2.0,96,0.00,,,0.00,Wunderground v.1.15,2013-02-27 05:11:00,
2013-02-27 00:16:00,45.3,44.2,29.63,South,176,0.0,2.0,96,0.00,,,0.00,Wunderground v.1.15,2013-02-27 05:16:00,
2013-02-27 00:22:00,45.1,44.0,29.63,South,174,0.0,2.0,96,0.00,,,0.00,Wunderground v.1.15,2013-02-27 05:22:00,
2013-02-27 00:27:00,45.1,44.0,29.63,South,176,0.0,2.0,96,0.00,,,0.00,Wunderground v.1.15,2013-02-27 05:27:00,
2013-02-27 00:32:00,45.1,44.0,29.63,WNW,296,0.0,2.0,96,0.00,,,0.00,Wunderground v.1.15,2013-02-27 05:32:00,
2013-02-27 00:38:00,45.0,43.9,29.63,WNW,296,0.0,2.0,96,0.00,,,0.00,Wunderground v.1.15,2013-02-27 05:38:00,
2013-02-27 00:44:00,45.0,43.9,29.63,WNW,296,0.0,2.0,96,0.00,,,0.00,Wunderground v.1.15,2013-02-27 05:44:00,
2013-02-27 00:50:00,45.0,43.9,29.63,WNW,293,0.0,2.0,96,0.00,,,0.00,Wunderground v.1.15,2013-02-27 05:50:00,
2013-02-27 00:55:00,44.9,43.8,29.63,WNW,293,0.0,2.0,96,0.00,,,0.00,Wunderground v.1.15,2013-02-27 05:55:00,
2013-02-27 01:01:00,44.9,43.8,29.63,WNW,293,0.0,2.0,96,0.00,,,0.00,Wunderground v.1.15,2013-02-27 06:01:00,
2013-02-27 01:07:00,44.8,43.7,29.64,WNW,290,0.0,2.0,96,0.00,,,0.00,Wunderground v.1.15,2013-02-27 06:07:00,
2013-02-27 01:13:00,44.7,43.6,29.64,WNW,289,0.0,2.0,96,0.00,,,0.00,Wunderground v.1.15,2013-02-27 06:13:00,
2013-02-27 01:19:00,44.7,43.6,29.64,WNW,289,0.0,2.0,96,0.00,,,0.00,Wunderground v.1.15,2013-02-27 06:19:00,
2013-02-27 01:25:00,44.7,43.6,29.64,WNW,289,0.0,2.0,96,0.00,,,0.00,Wunderground v.1.15,2013-02-27 06:25:00,
2013-02-27 01:31:00,44.7,43.6,29.64,WNW,290,0.0,2.0,96,0.00,,,0.00,Wunderground v.1.15,2013-02-27 06:31:00,
2013-02-27 01:36:00,44.7,43.6,29.64,WNW,290,0.0,2.0,96,0.00,,,0.00,Wunderground v.1.15,2013-02-27 06:36:00,
2013-02-27 01:42:00,44.7,43.6,29.64,WNW,289,0.0,2.0,96,0.00,,,0.00,Wunderground v.1.15,2013-02-27 06:42:00,
2013-02-27 01:48:00,44.7,43.6,29.64,East,92,0.0,2.0,96,0.00,,,0.00,Wunderground v.1.15,2013-02-27 06:48:00,
2013-02-27 01:54:00,44.7,43.6,29.64,SE,134,0.0,2.0,96,0.00,,,0.00,Wunderground v.1.15,2013-02-27 06:54:00,
2013-02-27 01:59:00,44.7,43.6,29.64,WSW,256,0.0,2.0,96,0.00,,,0.00,Wunderground v.1.15,2013-02-27 06:59:00,
2013-02-27 02:04:00,44.6,43.5,29.64,West,276,0.0,2.0,96,0.00,,,0.00,Wunderground v.1.15,2013-02-27 07:04:00,
2013-02-27 02:10:00,44.5,43.4,29.65,South,174,0.0,2.0,96,0.00,,,0.00,Wunderground v.1.15,2013-02-27 07:10:00,
2013-02-27 02:16:00,44.4,43.3,29.65,South,174,0.0,2.0,96,0.00,,,0.00,Wunderground v.1.15,2013-02-27 07:16:00,
2013-02-27 02:22:00,44.4,43.3,29.65,NNW,345,0.0,2.0,96,0.00,,,0.00,Wunderground v.1.15,2013-02-27 07:22:00,
2013-02-27 02:27:00,44.4,43.3,29.65,SE,145,0.0,2.0,96,0.00,,,0.00,Wunderground v.1.15,2013-02-27 07:27:00,
2013-02-27 02:33:00,44.3,43.2,29.65,WSW,258,0.0,2.0,96,0.00,,,0.00,Wunderground v.1.15,2013-02-27 07:33:00,
2013-02-27 02:38:00,44.3,43.2,29.65,West,263,0.0,2.0,96,0.00,,,0.00,Wunderground v.1.15,2013-02-27 07:38:00,
2013-02-27 02:43:00,44.3,43.2,29.65,WNW,294,0.0,2.0,96,0.00,,,0.00,Wunderground v.1.15,2013-02-27 07:43:00,
2013-02-27 02:49:00,44.3,43.2,29.64,WNW,292,0.0,2.0,96,0.00,,,0.00,Wunderground v.1.15,2013-02-27 07:49:00,
2013-02-27 02:55:00,44.2,43.1,29.64,NW,321,0.0,2.0,96,0.00,,,0.00,Wunderground v.1.15,2013-02-27 07:55:00,
2013-02-27 03:01:00,44.2,43.1,29.64,West,281,0.0,2.0,96,0.00,,,0.00,Wunderground v.1.15,2013-02-27 08:01:00,
2013-02-27 03:06:00,44.2,43.1,29.63,WNW,300,0.0,2.0,96,0.00,,,0.00,Wunderground v.1.15,2013-02-27 08:06:00,
2013-02-27 03:11:00,44.1,43.0,29.62,WSW,246,0.0,2.0,96,0.00,,,0.00,Wunderground v.1.15,2013-02-27 08:11:00,
2013-02-27 03:17:00,44.1,43.0,29.62,NNW,333,0.0,2.0,96,0.00,,,0.00,Wunderground v.1.15,2013-02-27 08:17:00,
2013-02-27 03:23:00,44.1,43.0,29.62,WSW,251,0.0,2.0,96,0.00,,,0.00,Wunderground v.1.15,2013-02-27 08:23:00,
2013-02-27 03:28:00,44.1,43.0,29.62,WSW,251,0.0,2.0,96,0.00,,,0.00,Wunderground v.1.15,2013-02-27 08:28:00,
2013-02-27 03:34:00,44.1,42.8,29.64,West,259,0.0,2.0,95,0.00,,,0.00,Wunderground v.1.15,2013-02-27 08:34:00,
2013-02-27 03:40:00,44.1,42.8,29.64,WSW,257,0.0,2.0,95,0.00,,,0.00,Wunderground v.1.15,2013-02-27 08:40:00,
2013-02-27 03:46:00,44.1,42.8,29.64,NNW,336,0.0,2.0,95,0.00,,,0.00,Wunderground v.1.15,2013-02-27 08:46:00,
2013-02-27 03:51:00,44.0,42.7,29.64,WSW,253,0.0,2.0,95,0.00,,,0.00,Wunderground v.1.15,2013-02-27 08:51:00,
2013-02-27 03:57:00,44.1,42.8,29.64,WSW,253,0.0,2.0,95,0.00,,,0.00,Wunderground v.1.15,2013-02-27 08:57:00,
2013-02-27 04:03:00,44.0,42.7,29.64,West,263,0.0,2.0,95,0.00,,,0.00,Wunderground v.1.15,2013-02-27 09:03:00,
2013-02-27 04:08:00,44.0,42.7,29.64,ENE,64,0.0,2.0,95,0.00,,,0.00,Wunderground v.1.15,2013-02-27 09:08:00,
2013-02-27 04:14:00,44.0,42.4,29.64,ENE,75,0.0,2.0,94,0.00,,,0.00,Wunderground v.1.15,2013-02-27 09:14:00,
2013-02-27 04:20:00,43.9,42.3,29.65,West,267,0.0,2.0,94,0.00,,,0.00,Wunderground v.1.15,2013-02-27 09:20:00,
2013-02-27 04:26:00,43.9,42.3,29.65,West,266,0.0,2.0,94,0.00,,,0.00,Wunderground v.1.15,2013-02-27 09:26:00,
2013-02-27 04:31:00,43.9,42.3,29.65,West,259,0.0,2.0,94,0.00,,,0.00,Wunderground v.1.15,2013-02-27 09:31:00,
2013-02-27 04:37:00,43.7,42.1,29.65,WSW,255,0.0,2.0,94,0.00,,,0.00,Wunderground v.1.15,2013-02-27 09:37:00,
2013-02-27 04:43:00,43.7,42.1,29.66,WSW,253,0.0,2.0,94,0.00,,,0.00,Wunderground v.1.15,2013-02-27 09:43:00,
2013-02-27 04:49:00,43.6,42.0,29.66,WNW,283,0.0,2.0,94,0.00,,,0.00,Wunderground v.1.15,2013-02-27 09:49:00,
2013-02-27 04:54:00,43.6,41.7,29.66,West,264,0.0,2.0,93,0.00,,,0.00,Wunderground v.1.15,2013-02-27 09:54:00,
2013-02-27 05:00:00,43.6,42.0,29.66,West,264,0.0,2.0,94,0.00,,,0.00,Wunderground v.1.15,2013-02-27 10:00:00,
2013-02-27 05:06:00,43.5,41.6,29.66,ENE,74,0.0,2.0,93,0.00,,,0.00,Wunderground v.1.15,2013-02-27 10:06:00,
2013-02-27 05:12:00,43.4,41.5,29.67,East,79,0.0,2.0,93,0.00,,,0.00,Wunderground v.1.15,2013-02-27 10:12:00,
2013-02-27 05:18:00,43.3,41.7,29.67,NW,308,0.0,2.0,94,0.00,,,0.00,Wunderground v.1.15,2013-02-27 10:18:00,
2013-02-27 05:24:00,43.2,41.3,29.67,NW,308,0.0,2.0,93,0.00,,,0.00,Wunderground v.1.15,2013-02-27 10:24:00,
2013-02-27 05:30:00,43.2,41.3,29.67,West,263,0.0,2.0,93,0.00,,,0.00,Wunderground v.1.15,2013-02-27 10:30:00,
2013-02-27 05:35:00,43.2,41.3,29.67,WSW,256,0.0,2.0,93,0.00,,,0.00,Wunderground v.1.15,2013-02-27 10:35:00,
2013-02-27 05:41:00,43.2,41.3,29.68,West,264,0.0,2.0,93,0.00,,,0.00,Wunderground v.1.15,2013-02-27 10:41:00,
2013-02-27 05:47:00,43.2,41.3,29.68,West,271,0.0,2.0,93,0.00,,,0.00,Wunderground v.1.15,2013-02-27 10:47:00,
2013-02-27 05:53:00,43.2,41.0,29.68,WSW,250,0.0,2.0,92,0.00,,,0.00,Wunderground v.1.15,2013-02-27 10:53:00,
2013-02-27 05:58:00,43.1,41.2,29.68,West,266,0.0,2.0,93,0.00,,,0.00,Wunderground v.1.15,2013-02-27 10:58:00,
2013-02-27 06:04:00,43.1,40.9,29.69,West,261,0.0,1.0,92,0.00,,,0.00,Wunderground v.1.15,2013-02-27 11:04:00,
2013-02-27 06:09:00,43.1,40.9,29.69,West,263,0.0,1.0,92,0.00,,,0.00,Wunderground v.1.15,2013-02-27 11:09:00,
2013-02-27 06:15:00,42.9,40.7,29.69,West,260,0.0,0.0,92,0.00,,,0.00,Wunderground v.1.15,2013-02-27 11:15:00,
2013-02-27 06:21:00,42.8,40.6,29.69,West,260,0.0,0.0,92,0.00,,,0.00,Wunderground v.1.15,2013-02-27 11:21:00,
2013-02-27 06:27:00,42.7,40.8,29.69,West,260,0.0,0.0,93,0.00,,,0.00,Wunderground v.1.15,2013-02-27 11:27:00,
2013-02-27 06:32:00,42.7,40.8,29.69,West,260,0.0,0.0,93,0.00,,,0.00,Wunderground v.1.15,2013-02-27 11:32:00,
2013-02-27 06:37:00,42.7,40.8,29.69,West,259,0.0,0.0,93,0.00,,,0.00,Wunderground v.1.15,2013-02-27 11:37:00,
2013-02-27 06:43:00,42.7,40.8,29.70,WSW,249,0.0,0.0,93,0.00,,,0.00,Wunderground v.1.15,2013-02-27 11:43:00,
2013-02-27 06:49:00,42.7,40.8,29.70,East,98,0.0,1.0,93,0.00,,,0.00,Wunderground v.1.15,2013-02-27 11:49:00,
2013-02-27 06:54:00,42.7,40.8,29.70,East,99,0.0,0.0,93,0.00,,,0.00,Wunderground v.1.15,2013-02-27 11:54:00,
2013-02-27 07:00:00,42.6,40.7,29.71,East,99,0.0,0.0,93,0.00,,,0.00,Wunderground v.1.15,2013-02-27 12:00:00,
2013-02-27 07:05:00,42.5,40.6,29.71,East,98,0.0,2.0,93,0.00,,,0.00,Wunderground v.1.15,2013-02-27 12:05:00,
2013-02-27 07:11:00,42.4,40.5,29.72,East,98,0.0,2.0,93,0.00,,,0.00,Wunderground v.1.15,2013-02-27 12:11:00,
2013-02-27 07:17:00,42.3,40.4,29.72,East,99,0.0,2.0,93,0.00,,,0.00,Wunderground v.1.15,2013-02-27 12:17:00,
2013-02-27 07:22:00,42.2,40.3,29.72,NW,305,0.0,2.0,93,0.00,,,0.00,Wunderground v.1.15,2013-02-27 12:22:00,
2013-02-27 07:27:00,42.3,40.7,29.73,WNW,289,0.0,2.0,94,0.00,,,0.00,Wunderground v.1.15,2013-02-27 12:27:00,
2013-02-27 07:32:00,42.3,40.7,29.73,WNW,289,0.0,2.0,94,0.00,,,0.00,Wunderground v.1.15,2013-02-27 12:32:00,
2013-02-27 07:38:00,42.4,40.8,29.73,WNW,289,0.0,2.0,94,0.00,,,0.00,Wunderground v.1.15,2013-02-27 12:38:00,
2013-02-27 07:43:00,42.5,40.9,29.73,SSW,194,0.0,2.0,94,0.00,,,0.00,Wunderground v.1.15,2013-02-27 12:43:00,
2013-02-27 07:49:00,42.7,41.1,29.73,SSW,195,0.0,2.0,94,0.00,,,0.00,Wunderground v.1.15,2013-02-27 12:49:00,
2013-02-27 07:54:00,42.8,40.9,29.74,SW,222,0.0,2.0,93,0.00,,,0.00,Wunderground v.1.15,2013-02-27 12:54:00,
2013-02-27 08:00:00,43.0,41.1,29.75,WSW,248,0.0,2.0,93,0.00,,,0.00,Wunderground v.1.15,2013-02-27 13:00:00,
2013-02-27 08:06:00,43.2,41.3,29.75,WSW,243,0.0,2.0,93,0.00,,,0.00,Wunderground v.1.15,2013-02-27 13:06:00,
2013-02-27 08:12:00,43.4,41.5,29.75,WSW,243,0.0,2.0,93,0.00,,,0.00,Wunderground v.1.15,2013-02-27 13:12:00,
2013-02-27 08:18:00,43.6,41.4,29.76,West,273,0.0,2.0,92,0.00,,,0.00,Wunderground v.1.15,2013-02-27 13:18:00,
2013-02-27 08:24:00,43.8,41.3,29.77,West,269,0.0,2.0,91,0.00,,,0.00,Wunderground v.1.15,2013-02-27 13:24:00,
2013-02-27 08:30:00,44.0,41.5,29.77,SSW,210,0.0,2.0,91,0.00,,,0.00,Wunderground v.1.15,2013-02-27 13:30:00,
2013-02-27 08:35:00,44.1,41.4,29.77,WSW,248,0.0,2.0,90,0.00,,,0.00,Wunderground v.1.15,2013-02-27 13:35:00,
2013-02-27 08:41:00,44.1,41.4,29.78,NE,37,0.0,2.0,90,0.00,,,0.00,Wunderground v.1.15,2013-02-27 13:41:00,
2013-02-27 08:47:00,44.2,41.5,29.78,West,263,0.0,2.0,90,0.00,,,0.00,Wunderground v.1.15,2013-02-27 13:47:00,
2013-02-27 08:53:00,44.6,41.8,29.78,East,84,0.0,2.0,90,0.00,,,0.00,Wunderground v.1.15,2013-02-27 13:53:00,
2013-02-27 08:58:00,45.0,42.2,29.78,East,84,0.0,2.0,90,0.00,,,0.00,Wunderground v.1.15,2013-02-27 13:58:00,
2013-02-27 09:04:00,45.4,42.3,29.78,ESE,108,0.0,2.0,89,0.00,,,0.00,Wunderground v.1.15,2013-02-27 14:04:00,
2013-02-27 09:10:00,46.1,42.7,29.78,East,86,0.0,2.0,88,0.00,,,0.00,Wunderground v.1.15,2013-02-27 14:10:00,
2013-02-27 09:16:00,47.1,43.1,29.78,SE,125,0.0,2.0,86,0.00,,,0.00,Wunderground v.1.15,2013-02-27 14:16:00,
2013-02-27 09:21:00,47.9,43.3,29.77,ESE,105,0.0,2.0,84,0.00,,,0.00,Wunderground v.1.15,2013-02-27 14:21:00,
2013-02-27 09:27:00,48.7,43.5,29.77,SW,225,0.0,2.0,82,0.00,,,0.00,Wunderground v.1.15,2013-02-27 14:27:00,
2013-02-27 09:33:00,49.2,43.6,29.77,SW,216,0.0,2.0,81,0.00,,,0.00,Wunderground v.1.15,2013-02-27 14:33:00,
2013-02-27 09:38:00,49.5,43.6,29.77,East,89,0.0,2.0,80,0.00,,,0.00,Wunderground v.1.15,2013-02-27 14:38:00,
2013-02-27 09:44:00,49.9,43.0,29.76,West,269,0.0,2.0,77,0.00,,,0.00,Wunderground v.1.15,2013-02-27 14:44:00,
2013-02-27 09:50:00,50.3,44.0,29.76,East,89,0.0,2.0,79,0.00,,,0.00,Wunderground v.1.15,2013-02-27 14:50:00,
2013-02-27 09:56:00,50.8,43.2,29.77,ENE,70,0.0,2.0,75,0.00,,,0.00,Wunderground v.1.15,2013-02-27 14:56:00,
2013-02-27 10:01:00,51.0,42.6,29.77,East,89,0.0,2.0,73,0.00,,,0.00,Wunderground v.1.15,2013-02-27 15:01:00,
2013-02-27 10:07:00,51.5,44.2,29.77,East,91,1.0,2.0,76,0.00,,,0.00,Wunderground v.1.15,2013-02-27 15:07:00,
2013-02-27 10:13:00,52.0,42.5,29.77,NNE,25,1.0,2.0,70,0.00,,,0.00,Wunderground v.1.15,2013-02-27 15:13:00,
2013-02-27 10:19:00,52.5,43.0,29.77,West,269,0.0,2.0,70,0.00,,,0.00,Wunderground v.1.15,2013-02-27 15:19:00,
2013-02-27 10:25:00,53.1,42.8,29.77,WSW,240,0.0,2.0,68,0.00,,,0.00,Wunderground v.1.15,2013-02-27 15:25:00,
2013-02-27 10:31:00,53.6,44.4,29.77,WSW,240,0.0,2.0,71,0.00,,,0.00,Wunderground v.1.15,2013-02-27 15:31:00,
2013-02-27 10:37:00,54.3,42.0,29.78,West,262,0.0,2.0,63,0.00,,,0.00,Wunderground v.1.15,2013-02-27 15:37:00,
2013-02-27 10:43:00,54.4,43.3,29.78,SE,131,0.0,2.0,66,0.00,,,0.00,Wunderground v.1.15,2013-02-27 15:43:00,
2013-02-27 10:49:00,55.0,43.0,29.78,WNW,293,0.0,2.0,64,0.00,,,0.00,Wunderground v.1.15,2013-02-27 15:49:00,
2013-02-27 10:55:00,55.2,42.0,29.78,SW,225,1.0,2.0,61,0.00,,,0.00,Wunderground v.1.15,2013-02-27 15:55:00,
2013-02-27 11:01:00,55.4,40.9,29.78,West,267,1.0,2.0,58,0.00,,,0.00,Wunderground v.1.15,2013-02-27 16:01:00,
2013-02-27 11:06:00,55.6,41.9,29.78,NNE,30,0.0,2.0,60,0.00,,,0.00,Wunderground v.1.15,2013-02-27 16:06:00,
2013-02-27 11:12:00,55.7,41.1,29.78,WSW,250,0.0,2.0,58,0.00,,,0.00,Wunderground v.1.15,2013-02-27 16:12:00,
2013-02-27 11:18:00,55.9,40.0,29.78,East,84,0.0,3.0,55,0.00,,,0.00,Wunderground v.1.15,2013-02-27 16:18:00,
2013-02-27 11:24:00,55.9,40.4,29.78,WSW,252,0.0,2.0,56,0.00,,,0.00,Wunderground v.1.15,2013-02-27 16:24:00,
2013-02-27 11:29:00,56.3,41.3,29.78,West,280,1.0,2.0,57,0.00,,,0.00,Wunderground v.1.15,2013-02-27 16:29:00,
2013-02-27 11:35:00,56.5,40.0,29.78,West,273,0.0,2.0,54,0.00,,,0.00,Wunderground v.1.15,2013-02-27 16:35:00,
2013-02-27 11:41:00,56.8,40.8,29.77,WNW,283,1.0,2.0,55,0.00,,,0.00,Wunderground v.1.15,2013-02-27 16:41:00,
2013-02-27 11:46:00,57.1,39.6,29.77,NE,56,1.0,2.0,52,0.00,,,0.00,Wunderground v.1.15,2013-02-27 16:46:00,
2013-02-27 11:52:00,57.4,40.4,29.77,West,264,1.0,2.0,53,0.00,,,0.00,Wunderground v.1.15,2013-02-27 16:52:00,
2013-02-27 11:58:00,57.6,39.1,29.76,SSW,210,1.0,2.0,50,0.00,,,0.00,Wunderground v.1.15,2013-02-27 16:58:00,
2013-02-27 12:04:00,58.0,38.9,29.76,West,264,0.0,2.0,49,0.00,,,0.00,Wunderground v.1.15,2013-02-27 17:04:00,
2013-02-27 12:10:00,58.4,38.2,29.76,WSW,258,1.0,2.0,47,0.00,,,0.00,Wunderground v.1.15,2013-02-27 17:10:00,
2013-02-27 12:15:00,58.3,40.2,29.76,West,271,1.0,2.0,51,0.00,,,0.00,Wunderground v.1.15,2013-02-27 17:15:00,
2013-02-27 12:21:00,59.0,38.8,29.76,West,278,0.0,2.0,47,0.00,,,0.00,Wunderground v.1.15,2013-02-27 17:21:00,
2013-02-27 12:27:00,59.3,40.1,29.76,SW,236,0.0,2.0,49,0.00,,,0.00,Wunderground v.1.15,2013-02-27 17:27:00,
2013-02-27 12:33:00,59.5,40.8,29.76,SSE,148,0.0,2.0,50,0.00,,,0.00,Wunderground v.1.15,2013-02-27 17:33:00,
2013-02-27 12:39:00,59.9,41.2,29.76,SW,235,0.0,2.0,50,0.00,,,0.00,Wunderground v.1.15,2013-02-27 17:39:00,
2013-02-27 12:45:00,59.9,41.2,29.75,ENE,68,1.0,2.0,50,0.00,,,0.00,Wunderground v.1.15,2013-02-27 17:45:00,
2013-02-27 12:51:00,59.6,38.8,29.75,West,269,1.0,2.0,46,0.00,,,0.00,Wunderground v.1.15,2013-02-27 17:51:00,
2013-02-27 12:56:00,59.4,39.7,29.74,ENE,61,1.0,2.0,48,0.00,,,0.00,Wunderground v.1.15,2013-02-27 17:56:00,
2013-02-27 13:02:00,59.4,38.6,29.74,West,259,1.0,2.0,46,0.00,,,0.00,Wunderground v.1.15,2013-02-27 18:02:00,
2013-02-27 13:08:00,59.8,39.0,29.73,ENE,62,0.0,2.0,46,0.00,,,0.00,Wunderground v.1.15,2013-02-27 18:08:00,
2013-02-27 13:14:00,60.9,40.5,29.73,West,262,0.0,2.0,47,0.00,,,0.00,Wunderground v.1.15,2013-02-27 18:14:00,
2013-02-27 13:19:00,60.7,39.2,29.73,WSW,256,0.0,3.0,45,0.00,,,0.00,Wunderground v.1.15,2013-02-27 18:19:00,
2013-02-27 13:25:00,61.0,39.5,29.73,West,262,1.0,2.0,45,0.00,,,0.00,Wunderground v.1.15,2013-02-27 18:25:00,
2013-02-27 13:31:00,60.9,39.4,29.73,South,169,1.0,2.0,45,0.00,,,0.00,Wunderground v.1.15,2013-02-27 18:31:00,
2013-02-27 13:37:00,61.2,40.2,29.73,WSW,250,1.0,2.0,46,0.00,,,0.00,Wunderground v.1.15,2013-02-27 18:37:00,
2013-02-27 13:43:00,61.3,39.8,29.73,WNW,285,1.0,2.0,45,0.00,,,0.00,Wunderground v.1.15,2013-02-27 18:43:00,
2013-02-27 13:49:00,61.0,40.1,29.73,East,83,1.0,2.0,46,0.00,,,0.00,Wunderground v.1.15,2013-02-27 18:49:00,
2013-02-27 13:55:00,61.7,40.7,29.73,WNW,291,0.0,2.0,46,0.00,,,0.00,Wunderground v.1.15,2013-02-27 18:55:00,
2013-02-27 14:00:00,61.6,40.0,29.73,West,276,0.0,2.0,45,0.00,,,0.00,Wunderground v.1.15,2013-02-27 19:00:00,
2013-02-27 14:06:00,61.7,40.1,29.73,South,187,0.0,2.0,45,0.00,,,0.00,Wunderground v.1.15,2013-02-27 19:06:00,
2013-02-27 14:12:00,61.6,39.5,29.73,WNW,302,1.0,2.0,44,0.00,,,0.00,Wunderground v.1.15,2013-02-27 19:12:00,
2013-02-27 14:18:00,61.5,39.4,29.72,WNW,287,1.0,2.0,44,0.00,,,0.00,Wunderground v.1.15,2013-02-27 19:18:00,
2013-02-27 14:23:00,61.7,39.0,29.73,WNW,298,1.0,2.0,43,0.00,,,0.00,Wunderground v.1.15,2013-02-27 19:23:00,
2013-02-27 14:29:00,61.4,39.3,29.72,West,263,1.0,2.0,44,0.00,,,0.00,Wunderground v.1.15,2013-02-27 19:29:00,
2013-02-27 14:34:00,61.4,39.3,29.73,ENE,67,1.0,2.0,44,0.00,,,0.00,Wunderground v.1.15,2013-02-27 19:34:00,
2013-02-27 14:40:00,61.5,41.1,29.72,WSW,251,1.0,2.0,47,0.00,,,0.00,Wunderground v.1.15,2013-02-27 19:40:00,
2013-02-27 14:46:00,61.9,40.3,29.72,West,271,1.0,2.0,45,0.00,,,0.00,Wunderground v.1.15,2013-02-27 19:46:00,
2013-02-27 14:51:00,61.8,40.2,29.72,ENE,65,1.0,2.0,45,0.00,,,0.00,Wunderground v.1.15,2013-02-27 19:51:00,
2013-02-27 14:56:00,61.7,40.7,29.72,ENE,74,1.0,2.0,46,0.00,,,0.00,Wunderground v.1.15,2013-02-27 19:56:00,
2013-02-27 15:02:00,61.6,40.6,29.71,SE,129,1.0,2.0,46,0.00,,,0.00,Wunderground v.1.15,2013-02-27 20:02:00,
2013-02-27 15:08:00,61.9,40.9,29.71,NNE,33,0.0,2.0,46,0.00,,,0.00,Wunderground v.1.15,2013-02-27 20:08:00,
2013-02-27 15:14:00,62.3,40.1,29.71,WNW,295,0.0,2.0,44,0.00,,,0.00,Wunderground v.1.15,2013-02-27 20:14:00,
2013-02-27 15:19:00,62.1,40.5,29.71,NE,37,1.0,2.0,45,0.00,,,0.00,Wunderground v.1.15,2013-02-27 20:19:00,
2013-02-27 15:25:00,62.2,40.0,29.71,ENE,63,1.0,2.0,44,0.00,,,0.00,Wunderground v.1.15,2013-02-27 20:25:00,
2013-02-27 15:31:00,62.4,40.8,29.71,WSW,237,1.0,2.0,45,0.00,,,0.00,Wunderground v.1.15,2013-02-27 20:31:00,
2013-02-27 15:37:00,62.7,41.0,29.71,WNW,293,0.0,2.0,45,0.00,,,0.00,Wunderground v.1.15,2013-02-27 20:37:00,
2013-02-27 15:42:00,62.5,40.9,29.71,SW,231,0.0,2.0,45,0.00,,,0.00,Wunderground v.1.15,2013-02-27 20:42:00,
2013-02-27 15:48:00,61.9,40.9,29.71,West,281,0.0,2.0,46,0.00,,,0.00,Wunderground v.1.15,2013-02-27 20:48:00,
2013-02-27 15:54:00,61.7,40.7,29.71,NNW,333,0.0,2.0,46,0.00,,,0.00,Wunderground v.1.15,2013-02-27 20:54:00,
2013-02-27 16:00:00,61.4,40.4,29.71,WSW,256,0.0,2.0,46,0.00,,,0.00,Wunderground v.1.15,2013-02-27 21:00:00,
2013-02-27 16:05:00,60.8,40.4,29.71,NE,40,1.0,2.0,47,0.00,,,0.00,Wunderground v.1.15,2013-02-27 21:05:00,
2013-02-27 16:11:00,60.4,39.5,29.70,West,264,1.0,2.0,46,0.00,,,0.00,Wunderground v.1.15,2013-02-27 21:11:00,
2013-02-27 16:16:00,60.2,40.4,29.70,SE,131,1.0,2.0,48,0.00,,,0.00,Wunderground v.1.15,2013-02-27 21:16:00,
2013-02-27 16:22:00,59.9,40.7,29.70,West,262,0.0,2.0,49,0.00,,,0.00,Wunderground v.1.15,2013-02-27 21:22:00,
2013-02-27 16:28:00,59.6,40.9,29.70,NW,314,1.0,2.0,50,0.00,,,0.00,Wunderground v.1.15,2013-02-27 21:28:00,
2013-02-27 16:34:00,59.5,41.9,29.70,NE,41,1.0,2.0,52,0.00,,,0.00,Wunderground v.1.15,2013-02-27 21:34:00,
2013-02-27 16:40:00,59.3,41.2,29.70,West,281,0.0,2.0,51,0.00,,,0.00,Wunderground v.1.15,2013-02-27 21:40:00,
2013-02-27 16:46:00,59.1,39.9,29.70,NW,312,0.0,2.0,49,0.00,,,0.00,Wunderground v.1.15,2013-02-27 21:46:00,
2013-02-27 16:51:00,59.0,40.4,29.70,WSW,258,0.0,2.0,50,0.00,,,0.00,Wunderground v.1.15,2013-02-27 21:51:00,
2013-02-27 16:57:00,58.8,40.2,29.70,West,269,0.0,3.0,50,0.00,,,0.00,Wunderground v.1.15,2013-02-27 21:57:00,
2013-02-27 17:03:00,58.4,39.8,29.70,West,274,0.0,2.0,50,0.00,,,0.00,Wunderground v.1.15,2013-02-27 22:03:00,
2013-02-27 17:09:00,58.1,40.1,29.70,WSW,248,0.0,2.0,51,0.00,,,0.00,Wunderground v.1.15,2013-02-27 22:09:00,
2013-02-27 17:14:00,57.7,40.2,29.71,WSW,248,0.0,2.0,52,0.00,,,0.00,Wunderground v.1.15,2013-02-27 22:14:00,
2013-02-27 17:20:00,57.1,41.1,29.71,WSW,248,0.0,2.0,55,0.00,,,0.00,Wunderground v.1.15,2013-02-27 22:20:00,
2013-02-27 17:25:00,56.7,40.7,29.71,WNW,287,0.0,2.0,55,0.00,,,0.00,Wunderground v.1.15,2013-02-27 22:25:00,
2013-02-27 17:31:00,56.7,40.7,29.71,WNW,284,0.0,2.0,55,0.00,,,0.00,Wunderground v.1.15,2013-02-27 22:31:00,
2013-02-27 17:37:00,56.3,40.8,29.71,WNW,284,0.0,2.0,56,0.00,,,0.00,Wunderground v.1.15,2013-02-27 22:37:00,
2013-02-27 17:43:00,55.8,40.8,29.71,West,266,0.0,2.0,57,0.00,,,0.00,Wunderground v.1.15,2013-02-27 22:43:00,
2013-02-27 17:48:00,55.7,40.7,29.71,WNW,285,0.0,2.0,57,0.00,,,0.00,Wunderground v.1.15,2013-02-27 22:48:00,
2013-02-27 17:54:00,55.6,41.0,29.72,NNW,347,0.0,2.0,58,0.00,,,0.00,Wunderground v.1.15,2013-02-27 22:54:00,
2013-02-27 18:00:00,55.4,40.9,29.72,NNE,33,0.0,2.0,58,0.00,,,0.00,Wunderground v.1.15,2013-02-27 23:00:00,
2013-02-27 18:06:00,55.2,41.1,29.72,WSW,256,0.0,2.0,59,0.00,,,0.00,Wunderground v.1.15,2013-02-27 23:06:00,
2013-02-27 18:11:00,55.1,40.6,29.72,WSW,252,0.0,2.0,58,0.00,,,0.00,Wunderground v.1.15,2013-02-27 23:11:00,
2013-02-27 18:17:00,55.0,40.5,29.72,WSW,246,0.0,2.0,58,0.00,,,0.00,Wunderground v.1.15,2013-02-27 23:17:00,
2013-02-27 18:23:00,54.6,41.0,29.73,WSW,242,0.0,2.0,60,0.00,,,0.00,Wunderground v.1.15,2013-02-27 23:23:00,
2013-02-27 18:29:00,54.2,41.0,29.73,SW,222,0.0,2.0,61,0.00,,,0.00,Wunderground v.1.15,2013-02-27 23:29:00,
2013-02-27 18:35:00,53.7,41.0,29.73,SW,222,0.0,2.0,62,0.00,,,0.00,Wunderground v.1.15,2013-02-27 23:35:00,
2013-02-27 18:40:00,53.5,40.8,29.73,WSW,248,0.0,2.0,62,0.00,,,0.00,Wunderground v.1.15,2013-02-27 23:40:00,
2013-02-27 18:46:00,53.1,40.8,29.73,WSW,248,0.0,2.0,63,0.00,,,0.00,Wunderground v.1.15,2013-02-27 23:46:00,
2013-02-27 18:52:00,52.8,41.0,29.72,North,5,0.0,2.0,64,0.00,,,0.00,Wunderground v.1.15,2013-02-27 23:52:00,
2013-02-27 18:58:00,52.6,40.8,29.73,NNW,328,0.0,2.0,64,0.00,,,0.00,Wunderground v.1.15,2013-02-27 23:58:00,
2013-02-27 19:04:00,52.2,40.8,29.73,NNW,328,0.0,2.0,65,0.00,,,0.00,Wunderground v.1.15,2013-02-28 00:04:00,
2013-02-27 19:10:00,51.8,40.8,29.73,NNW,328,0.0,2.0,66,0.00,,,0.00,Wunderground v.1.15,2013-02-28 00:10:00,
2013-02-27 19:16:00,51.5,40.9,29.73,NNW,328,0.0,2.0,67,0.00,,,0.00,Wunderground v.1.15,2013-02-28 00:16:00,
2013-02-27 19:21:00,51.2,41.0,29.73,NNW,328,0.0,2.0,68,0.00,,,0.00,Wunderground v.1.15,2013-02-28 00:21:00,
2013-02-27 19:27:00,50.8,41.0,29.72,NNW,327,0.0,2.0,69,0.00,,,0.00,Wunderground v.1.15,2013-02-28 00:27:00,
2013-02-27 19:33:00,50.4,40.6,29.73,NNW,328,0.0,2.0,69,0.00,,,0.00,Wunderground v.1.15,2013-02-28 00:33:00,
2013-02-27 19:39:00,50.1,40.7,29.73,NNW,328,0.0,2.0,70,0.00,,,0.00,Wunderground v.1.15,2013-02-28 00:39:00,
2013-02-27 19:44:00,49.8,40.4,29.73,NNW,328,0.0,2.0,70,0.00,,,0.00,Wunderground v.1.15,2013-02-28 00:44:00,
2013-02-27 19:49:00,49.5,40.5,29.73,NNW,328,0.0,2.0,71,0.00,,,0.00,Wunderground v.1.15,2013-02-28 00:49:00,
2013-02-27 19:55:00,49.1,40.5,29.73,NNW,328,0.0,2.0,72,0.00,,,0.00,Wunderground v.1.15,2013-02-28 00:55:00,
2013-02-27 20:01:00,48.8,40.5,29.73,NNW,328,0.0,2.0,73,0.00,,,0.00,Wunderground v.1.15,2013-02-28 01:01:00,
2013-02-27 20:06:00,48.4,40.8,29.73,NNW,328,0.0,2.0,75,0.00,,,0.00,Wunderground v.1.15,2013-02-28 01:06:00,
2013-02-27 20:12:00,48.0,40.8,29.73,NNW,328,0.0,2.0,76,0.00,,,0.00,Wunderground v.1.15,2013-02-28 01:12:00,
2013-02-27 20:17:00,47.6,40.4,29.72,NNW,328,0.0,2.0,76,0.00,,,0.00,Wunderground v.1.15,2013-02-28 01:17:00,
2013-02-27 20:23:00,47.3,40.5,29.72,NNW,328,0.0,2.0,77,0.00,,,0.00,Wunderground v.1.15,2013-02-28 01:23:00,
2013-02-27 20:28:00,47.0,40.5,29.72,NNW,328,0.0,2.0,78,0.00,,,0.00,Wunderground v.1.15,2013-02-28 01:28:00,
2013-02-27 20:34:00,46.7,40.5,29.72,NNW,328,0.0,2.0,79,0.00,,,0.00,Wunderground v.1.15,2013-02-28 01:34:00,
2013-02-27 20:40:00,46.3,40.5,29.72,NNW,328,0.0,2.0,80,0.00,,,0.00,Wunderground v.1.15,2013-02-28 01:40:00,
2013-02-27 20:46:00,46.1,40.3,29.72,NNW,328,0.0,2.0,80,0.00,,,0.00,Wunderground v.1.15,2013-02-28 01:46:00,
2013-02-27 20:52:00,46.0,40.2,29.72,NNW,328,0.0,2.0,80,0.00,,,0.00,Wunderground v.1.15,2013-02-28 01:52:00,
2013-02-27 20:57:00,46.2,40.7,29.73,NNW,328,0.0,2.0,81,0.00,,,0.00,Wunderground v.1.15,2013-02-28 01:57:00,
2013-02-27 21:03:00,46.6,40.4,29.72,NNW,347,0.0,2.0,79,0.00,,,0.00,Wunderground v.1.15,2013-02-28 02:03:00,
2013-02-27 21:08:00,46.9,40.4,29.72,NNW,346,0.0,2.0,78,0.00,,,0.00,Wunderground v.1.15,2013-02-28 02:08:00,
2013-02-27 21:14:00,47.2,40.7,29.72,NNW,345,0.0,2.0,78,0.00,,,0.00,Wunderground v.1.15,2013-02-28 02:14:00,
2013-02-27 21:20:00,47.3,40.8,29.72,NNW,345,0.0,2.0,78,0.00,,,0.00,Wunderground v.1.15,2013-02-28 02:20:00,
2013-02-27 21:26:00,47.3,40.8,29.72,NNW,347,0.0,2.0,78,0.00,,,0.00,Wunderground v.1.15,2013-02-28 02:26:00,
2013-02-27 21:32:00,47.1,40.6,29.72,NNW,347,0.0,2.0,78,0.00,,,0.00,Wunderground v.1.15,2013-02-28 02:32:00,
2013-02-27 21:38:00,47.0,40.5,29.72,NNW,345,0.0,2.0,78,0.00,,,0.00,Wunderground v.1.15,2013-02-28 02:38:00,
2013-02-27 21:44:00,46.8,40.3,29.72,NNW,345,0.0,2.0,78,0.00,,,0.00,Wunderground v.1.15,2013-02-28 02:44:00,
2013-02-27 21:49:00,46.7,40.2,29.72,NNW,347,0.0,2.0,78,0.00,,,0.00,Wunderground v.1.15,2013-02-28 02:49:00,
2013-02-27 21:55:00,46.5,40.3,29.72,NNW,347,0.0,2.0,79,0.00,,,0.00,Wunderground v.1.15,2013-02-28 02:55:00,
2013-02-27 22:01:00,46.4,39.9,29.72,NNW,347,0.0,2.0,78,0.00,,,0.00,Wunderground v.1.15,2013-02-28 03:01:00,
2013-02-27 22:07:00,46.2,39.7,29.72,NNW,345,0.0,2.0,78,0.00,,,0.00,Wunderground v.1.15,2013-02-28 03:07:00,
2013-02-27 22:12:00,46.1,39.9,29.72,NNW,346,0.0,2.0,79,0.00,,,0.00,Wunderground v.1.15,2013-02-28 03:12:00,
2013-02-27 22:18:00,45.9,39.8,29.72,NNW,346,0.0,2.0,79,0.00,,,0.00,Wunderground v.1.15,2013-02-28 03:18:00,
2013-02-27 22:24:00,45.6,39.5,29.72,NNW,347,0.0,2.0,79,0.00,,,0.00,Wunderground v.1.15,2013-02-28 03:24:00,
2013-02-27 22:29:00,45.5,39.7,29.72,NNW,347,0.0,2.0,80,0.00,,,0.00,Wunderground v.1.15,2013-02-28 03:29:00,
2013-02-27 22:36:00,45.3,39.5,29.72,NNW,346,0.0,2.0,80,0.00,,,0.00,Wunderground v.1.15,2013-02-28 03:36:00,
2013-02-27 22:41:00,45.1,39.6,29.71,NNW,346,0.0,2.0,81,0.00,,,0.00,Wunderground v.1.15,2013-02-28 03:41:00,
2013-02-27 22:47:00,44.8,39.6,29.71,NNW,346,0.0,2.0,82,0.00,,,0.00,Wunderground v.1.15,2013-02-28 03:47:00,
2013-02-27 22:53:00,44.5,39.3,29.71,NNW,345,0.0,2.0,82,0.00,,,0.00,Wunderground v.1.15,2013-02-28 03:53:00,
2013-02-27 22:59:00,44.3,39.2,29.71,NNW,346,0.0,2.0,82,0.00,,,0.00,Wunderground v.1.15,2013-02-28 03:59:00,
2013-02-27 23:05:00,44.1,39.3,29.70,NNW,346,0.0,2.0,83,0.00,,,0.00,Wunderground v.1.15,2013-02-28 04:05:00,
2013-02-27 23:10:00,43.9,39.1,29.70,NNW,345,0.0,2.0,83,0.00,,,0.00,Wunderground v.1.15,2013-02-28 04:10:00,
2013-02-27 23:16:00,43.6,39.1,29.70,NNW,347,0.0,2.0,84,0.00,,,0.00,Wunderground v.1.15,2013-02-28 04:16:00,
2013-02-27 23:21:00,43.4,38.9,29.70,NNW,346,0.0,2.0,84,0.00,,,0.00,Wunderground v.1.15,2013-02-28 04:21:00,
2013-02-27 23:27:00,43.1,38.6,29.70,NNW,346,0.0,2.0,84,0.00,,,0.00,Wunderground v.1.15,2013-02-28 04:27:00,
2013-02-27 23:33:00,42.9,38.7,29.69,NNW,345,0.0,2.0,85,0.00,,,0.00,Wunderground v.1.15,2013-02-28 04:33:00,
2013-02-27 23:39:00,42.7,38.5,29.69,NNW,346,0.0,2.0,85,0.00,,,0.00,Wunderground v.1.15,2013-02-28 04:39:00,
2013-02-27 23:44:00,42.7,38.8,29.69,NNW,346,0.0,2.0,86,0.00,,,0.00,Wunderground v.1.15,2013-02-28 04:44:00,
2013-02-27 23:50:00,42.7,38.8,29.69,NNW,345,0.0,2.0,86,0.00,,,0.00,Wunderground v.1.15,2013-02-28 04:50:00,
2013-02-27 23:56:00,42.7,39.1,29.70,NNW,346,0.0,2.0,87,0.00,,,0.00,Wunderground v.1.15,2013-02-28 04:56:00,